Menomonie, WI

1:26 PM CST on December 04, 2016 (GMT -0600)
Menomonie

Weather History for KLUM - September, 2013

Change the Weather History Date:

Monday, September 30, 2013

  Actual Average (KEAU) Record (KEAU)
Temperature  
Mean Temperature 64 °F 54 °F  
Max Temperature 75 °F 65 °F 85 °F (1971)
Min Temperature 52 °F 42 °F 22 °F (1899)
Degree Days  
Heating Degree Days 2 12  
Month to date heating degree days 193  
Since 1 July heating degree days 233  
Cooling Degree Days 0 0  
Month to date cooling degree days 48  
Year to date cooling degree days 575  
Growing Degree Days 14 (Base 50)    
Moisture  
Dew Point 47 °F    
Average Humidity 54    
Maximum Humidity 77    
Minimum Humidity 36    
Precipitation  
Precipitation 0.00 in 0.10 in 3.00 in (1925)
Month to date precipitation 3.68  
Year to date precipitation 25.80  
Snow  
Snow 0.00 in T in T in (1958)
Month to date snowfall 0.0  
Since 1 July snowfall 0.0  
Since 1 September snowfall 0.0  
Snow Depth -    
Sea Level Pressure  
Sea Level Pressure 29.75 in    
Wind  
Wind Speed 9 mph (SSE)    
Max Wind Speed 23 mph    
Max Gust Speed 32 mph    
Visibility 10 miles    
Events      
T = Trace of Precipitation, MM = Missing Value Source: NWS Daily Summary

Daily Weather History Graph

Daily Weather History Graph

Search for Another Location

Airport or City:

Trip Planner

Search our weather history database for the weather conditions in past years. The results will help you decide how hot, cold, wet, or windy it might be!

Date:

Astronomy

Sep. 30, 2013 Rise Set
Actual Time 7:04 AM CDT 6:49 PM CDT
Civil Twilight 6:35 AM CDT 7:18 PM CDT
Nautical Twilight 6:01 AM CDT 7:52 PM CDT
Astronomical Twilight 5:26 AM CDT 8:26 PM CDT
Moon 2:32 AM CDT (9/30) 4:28 PM CDT (9/30)
Length of Visible Light 12h 43m
Length of Day
11h 44m
Waning Crescent, 19% of the Moon is Illuminated
Sep 30
Waning Crescent
Oct 4
New
Oct 11
First Quarter
Oct 18
Full
Oct 26
Last Quarter

Hourly Weather History & Observations

Time (CDT) Temp. Dew Point Humidity Pressure Visibility Wind Dir Wind Speed Gust Speed Precip Events Conditions
12:15 AM 54.7 °F 44.8 °F 69% 29.87 in 10.0 mi SSE 5.8 mph - N/A   Clear
12:35 AM 58.6 °F 44.2 °F 59% 29.87 in 10.0 mi SSE 6.9 mph - N/A   Clear
12:55 AM 57.7 °F 44.2 °F 61% 29.86 in 10.0 mi SSE 5.8 mph - N/A   Clear
1:15 AM 52.9 °F 44.8 °F 74% 29.86 in 10.0 mi Calm Calm - N/A   Clear
1:35 AM 52.7 °F 45.0 °F 75% 29.86 in 10.0 mi Calm Calm - N/A   Clear
1:55 AM 53.4 °F 45.0 °F 73% 29.86 in 10.0 mi East 3.5 mph - N/A   Clear
2:15 AM 52.5 °F 45.0 °F 75% 29.85 in 10.0 mi ENE 4.6 mph - N/A   Clear
2:35 AM 53.1 °F 45.0 °F 74% 29.85 in 10.0 mi East 4.6 mph - N/A   Clear
2:55 AM 52.0 °F 45.0 °F 77% 29.86 in 10.0 mi Calm Calm - N/A   Clear
3:15 AM 52.0 °F 44.6 °F 76% 29.85 in 10.0 mi East 3.5 mph - N/A   Clear
3:35 AM 54.3 °F 44.8 °F 70% 29.84 in 10.0 mi SSE 6.9 mph - N/A   Clear
3:55 AM 57.0 °F 44.8 °F 64% 29.83 in 10.0 mi SE 5.8 mph - N/A   Clear
4:15 AM 57.4 °F 45.1 °F 64% 29.83 in 10.0 mi SSE 6.9 mph - N/A   Clear
4:35 AM 58.3 °F 45.5 °F 62% 29.83 in 10.0 mi SSE 8.1 mph - N/A   Clear
4:55 AM 59.4 °F 45.1 °F 59% 29.82 in 10.0 mi SSE 10.4 mph 17.3 mph N/A   Clear
5:15 AM 59.2 °F 45.5 °F 60% 29.82 in 10.0 mi SSE 8.1 mph - N/A   Clear
5:35 AM 59.4 °F 45.5 °F 60% 29.81 in 10.0 mi SSE 8.1 mph - N/A   Clear
5:55 AM 59.0 °F 45.5 °F 61% 29.80 in 10.0 mi SSE 12.7 mph - N/A   Clear
6:15 AM 58.3 °F 45.5 °F 62% 29.80 in 10.0 mi SSE 11.5 mph - N/A   Clear
6:35 AM 58.3 °F 45.5 °F 62% 29.79 in 10.0 mi SSE 11.5 mph 16.1 mph N/A   Clear
6:55 AM 58.3 °F 45.1 °F 62% 29.80 in 10.0 mi SSE 9.2 mph - N/A   Clear
7:15 AM 57.9 °F 45.1 °F 62% 29.79 in 10.0 mi SE 9.2 mph - N/A   Clear
7:35 AM 57.9 °F 45.5 °F 63% 29.78 in 10.0 mi SE 9.2 mph - N/A   Clear
7:55 AM 59.2 °F 45.9 °F 61% 29.78 in 10.0 mi SSE 11.5 mph 17.3 mph N/A   Clear
8:15 AM 60.4 °F 46.4 °F 60% 29.79 in 10.0 mi SSE 8.1 mph - N/A   Clear
8:35 AM 61.9 °F 47.1 °F 58% 29.78 in 10.0 mi SSE 10.4 mph - N/A   Clear
8:55 AM 61.7 °F 46.9 °F 58% 29.78 in 10.0 mi South 10.4 mph 16.1 mph N/A   Clear
9:15 AM 62.8 °F 47.5 °F 57% 29.78 in 10.0 mi SSE 13.8 mph 18.4 mph N/A   Clear
9:35 AM 63.5 °F 47.8 °F 57% 29.77 in 10.0 mi South 11.5 mph 21.9 mph N/A   Clear
9:55 AM 64.4 °F 48.0 °F 55% 29.77 in 10.0 mi South 12.7 mph 19.6 mph N/A   Clear
10:15 AM 66.9 °F 48.6 °F 52% 29.76 in 10.0 mi South 19.6 mph 23.0 mph N/A   Clear
10:35 AM 65.8 °F 48.6 °F 54% 29.75 in 10.0 mi South 13.8 mph 23.0 mph N/A   Clear
10:55 AM 66.6 °F 48.7 °F 53% 29.75 in 10.0 mi South 17.3 mph 28.8 mph N/A   Clear
11:15 AM 67.1 °F 49.3 °F 53% 29.75 in 10.0 mi South 17.3 mph 23.0 mph N/A   Clear
11:35 AM 69.8 °F 49.6 °F 49% 29.74 in 10.0 mi South 17.3 mph 24.2 mph N/A   Clear
11:55 AM 70.0 °F 49.5 °F 48% 29.73 in 10.0 mi South 21.9 mph 28.8 mph N/A   Clear
12:15 PM 69.6 °F 49.5 °F 49% 29.73 in 10.0 mi South 17.3 mph 25.3 mph N/A   Clear
12:35 PM 72.0 °F 49.3 °F 45% 29.73 in 10.0 mi South 19.6 mph 28.8 mph N/A   Clear
12:55 PM 72.1 °F 48.7 °F 43% 29.72 in 10.0 mi South 23.0 mph 32.2 mph N/A   Clear
1:15 PM 73.2 °F 48.7 °F 42% 29.72 in 10.0 mi South 23.0 mph 29.9 mph N/A   Clear
1:35 PM 73.4 °F 48.7 °F 42% 29.71 in 10.0 mi SSE 20.7 mph 27.6 mph N/A   Clear
1:55 PM 73.4 °F 48.6 °F 41% 29.71 in 10.0 mi SSE 13.8 mph 27.6 mph N/A   Clear
2:15 PM 72.9 °F 48.2 °F 42% 29.71 in 10.0 mi SSE 16.1 mph 24.2 mph N/A   Clear
2:35 PM 73.8 °F 48.4 °F 41% 29.70 in 10.0 mi SSE 16.1 mph 24.2 mph N/A   Clear
2:55 PM 74.5 °F 47.8 °F 39% 29.69 in 10.0 mi SSE 16.1 mph 25.3 mph N/A   Clear
3:15 PM 74.7 °F 46.9 °F 37% 29.69 in 10.0 mi SSE 17.3 mph 23.0 mph N/A   Clear
3:35 PM 75.4 °F 46.9 °F 36% 29.69 in 10.0 mi South 21.9 mph 26.5 mph N/A   Clear
3:55 PM 74.8 °F 45.9 °F 36% 29.68 in 10.0 mi South 19.6 mph 26.5 mph N/A   Clear
4:15 PM 74.8 °F 45.9 °F 36% 29.68 in 10.0 mi South 20.7 mph 26.5 mph N/A   Clear
4:35 PM 74.5 °F 46.0 °F 36% 29.68 in 10.0 mi South 17.3 mph 25.3 mph N/A   Clear
4:55 PM 74.3 °F 46.2 °F 37% 29.68 in 10.0 mi South 15.0 mph 23.0 mph N/A   Clear
5:15 PM 73.9 °F 45.5 °F 36% 29.68 in 10.0 mi South 17.3 mph 23.0 mph N/A   Clear
5:35 PM 73.8 °F 45.1 °F 36% 29.69 in 10.0 mi South 11.5 mph 19.6 mph N/A   Clear
5:55 PM 72.9 °F 45.1 °F 37% 29.69 in 10.0 mi SSE 12.7 mph 19.6 mph N/A   Clear
6:15 PM 71.6 °F 45.5 °F 39% 29.69 in 10.0 mi SSE 9.2 mph - N/A   Clear
6:35 PM 69.8 °F 45.9 °F 42% 29.69 in 10.0 mi SSE 8.1 mph - N/A   Clear
6:55 PM 68.0 °F 46.0 °F 45% 29.68 in 10.0 mi SE 9.2 mph - N/A   Clear
7:15 PM 66.6 °F 46.4 °F 48% 29.69 in 10.0 mi SE 5.8 mph - N/A   Clear
7:35 PM 65.7 °F 46.8 °F 50% 29.70 in 10.0 mi SE 5.8 mph - N/A   Clear
7:55 PM 64.4 °F 46.9 °F 53% 29.70 in 10.0 mi SE 5.8 mph - N/A   Clear
8:15 PM 63.1 °F 47.3 °F 56% 29.70 in 10.0 mi SE 5.8 mph - N/A   Clear
8:35 PM 62.8 °F 47.3 °F 57% 29.71 in 10.0 mi SE 6.9 mph - N/A   Clear
8:55 PM 63.7 °F 47.3 °F 55% 29.70 in 10.0 mi SE 6.9 mph - N/A   Clear
9:15 PM 65.3 °F 46.9 °F 51% 29.70 in 10.0 mi SSE 8.1 mph - N/A   Clear
9:35 PM 65.3 °F 47.3 °F 52% 29.70 in 10.0 mi SSE 8.1 mph - N/A   Clear
9:55 PM 64.9 °F 47.3 °F 53% 29.70 in 10.0 mi SSE 8.1 mph - N/A   Clear
10:15 PM 65.5 °F 47.5 °F 52% 29.70 in 10.0 mi SSE 8.1 mph - N/A   Clear
10:35 PM 65.8 °F 47.5 °F 52% 29.70 in 10.0 mi SSE 8.1 mph - N/A   Clear
10:55 PM 65.8 °F 47.7 °F 52% 29.70 in 10.0 mi SSE 9.2 mph - N/A   Clear
11:15 PM 66.2 °F 47.5 °F 51% 29.70 in 10.0 mi SSE 5.8 mph - N/A   Clear
11:35 PM 66.4 °F 47.5 °F 51% 29.69 in 10.0 mi SSE 9.2 mph - N/A   Clear
11:55 PM 67.1 °F 47.5 °F 49% 29.69 in 10.0 mi South 9.2 mph - N/A   Clear